Simultaneous Nadir Overpasses (SNOs) Predictions

Prediction of SNOs between GOES-15 and TERRA Satellite Orbit:

Table of predicted SNOs for the next 14.0 days since TLE Epoch: 6/3/2023
Index Date Time (GOES-15) GOES-15 Lat,Lon TERRA Lat,Lon Distance(km) Time Diff (sec)
1 06/03/2023 20:16:57 -0.24,-156.50 -0.94,-153.17 377.54 80
2 06/04/2023 08:39:59 0.22,-156.70 -0.05,-158.13 161.69 80
3 06/06/2023 08:21:03 0.24,-157.53 0.94,-154.22 375.72 80
4 06/06/2023 20:43:54 -0.22,-157.75 0.04,-159.14 156.91 80
5 06/08/2023 20:24:59 -0.25,-158.58 -0.97,-155.24 379.95 80
6 06/09/2023 08:47:59 0.22,-158.78 -0.07,-160.18 159.37 80
7 06/11/2023 08:29:03 0.24,-159.60 0.97,-156.28 377.22 80
8 06/11/2023 20:51:54 -0.22,-159.82 0.06,-161.19 155.63 80
9 06/13/2023 20:32:57 -0.23,-160.63 -0.93,-157.28 380.74 80
10 06/14/2023 08:55:58 0.20,-160.83 -0.09,-162.23 158.48 80
11 06/16/2023 08:37:01 0.22,-161.64 0.93,-158.32 376.88 80
12 06/16/2023 20:59:52 -0.19,-161.85 0.09,-163.23 156.52 80
